Home > Weather > Limoges > Past weeks

Flag for France Weather for the Past 2 Weeks in Limoges, Limousin, France

Now
50 °F

Passing clouds.


Feels Like: 48 °F
Forecast: 40 / 52 °F
Wind: 5 mph from South

Location: Limoges Airport

Current Time: Apr 29, 2016 at 12:13:51 PM

Latest Report: Apr 29, 2016 at 11:30 AM


Visibility: N/A

Pressure: 30.09 "Hg

Humidity: 43%

Dew Point: 28 °F

Location of LimogesLocation

Historic Weather in Limoges — Graph

°F

Limoges Temperature Yesterday

Maximum temperature yesterday: 50 °F (at 3:00 PM)
Minimum temperature yesterday: 36 °F (at 3:30 AM)
Average temperature yesterday: 44 °F

High & Low Weather Summary for the Past Weeks

 TemperatureHumidityPressure
High75 °F (Apr 20, 4:30 PM)100% (Apr 15, 1:30 AM)30.27 "Hg (Apr 15, 1:30 AM)
Low34 °F (Apr 25, 7:00 AM)25% (Apr 20, 5:00 PM)29.65 "Hg (Apr 16, 7:00 PM)
Average49 °F72%29.98 "Hg
* Reported Apr 14 10:00 AM — Apr 29 10:00 AM, Limoges, Weather by CustomWeather, © 2016

Note: Actual official high and low records may vary slightly from our data, if they occured in-between our weather recording intervals... More about our weather records

Advertising

Limoges Weather History for the Previous 24 Hours

Scroll right to see more
 ConditionsComfort  
Time TempWeatherWind HumidityBarometerVisibility
10:00 AM
Fri, Apr 29
46 °FSunny.1 mph66%30.09 "Hg10 mi
9:30 AM45 °FSunny.1 mph66%30.09 "Hg10 mi
9:00 AM43 °FSunny.2 mph71%30.09 "Hg10 mi
8:30 AM39 °FPassing clouds.2 mph75%30.09 "HgN/A
8:00 AM37 °FScattered clouds.2 mph81%30.07 "HgN/A
7:30 AM36 °FPassing clouds.3 mph81%30.07 "HgN/A
6:30 AM36 °FClear.2 mph81%30.07 "Hg10 mi
6:00 AM37 °FClear.3 mph75%30.07 "Hg10 mi
5:30 AM37 °FClear.3 mph75%30.07 "Hg10 mi
4:30 AM39 °FClear.2 mph70%30.07 "Hg10 mi
4:00 AM39 °FClear.No wind70%30.07 "Hg10 mi
3:30 AM39 °FClear.No wind70%30.07 "Hg10 mi
3:00 AM39 °FClear.No wind70%30.07 "Hg10 mi
2:30 AM39 °FClear.No wind70%30.07 "Hg10 mi
2:00 AM39 °FClear.2 mph70%30.07 "Hg10 mi
1:30 AM41 °FClear.3 mph66%30.07 "Hg10 mi
1:00 AM43 °FClear.3 mph57%30.07 "Hg10 mi
12:30 AM43 °FClear.3 mph57%30.07 "Hg10 mi
12:00 AM45 °FClear.3 mph57%30.07 "Hg10 mi
11:30 PM
Thu, Apr 28
45 °FClear.3 mph57%30.07 "Hg10 mi
11:00 PM45 °FClear.5 mph57%30.07 "Hg10 mi
10:30 PM45 °FClear.5 mph57%30.07 "Hg10 mi
10:00 PM45 °FClear.5 mph57%30.07 "Hg10 mi
9:30 PM46 °FSunny.3 mph57%30.04 "Hg10 mi
9:00 PM46 °FSunny.5 mph53%30.04 "Hg10 mi
8:30 PM48 °FPassing clouds.3 mph54%30.04 "HgN/A
8:00 PM48 °FPassing clouds.5 mph50%30.04 "HgN/A
7:30 PM48 °FPassing clouds.6 mph50%30.04 "HgN/A
7:00 PM50 °FSunny.3 mph47%30.04 "Hg10 mi
6:30 PM50 °FOvercast.6 mph50%30.04 "HgN/A
6:00 PM50 °FMostly cloudy.5 mph47%30.01 "HgN/A
5:30 PM50 °FOvercast.5 mph50%30.01 "HgN/A
5:00 PM50 °FMore clouds than sun.6 mph47%30.01 "HgN/A
4:30 PM50 °FOvercast.7 mph47%30.01 "HgN/A
4:00 PM50 °FMostly cloudy.6 mph50%30.01 "HgN/A
3:30 PM48 °FPassing clouds.7 mph50%30.04 "HgN/A
3:00 PM50 °FOvercast.6 mph54%30.04 "HgN/A
2:30 PM48 °FMore clouds than sun.8 mph54%30.01 "HgN/A
2:00 PM48 °FOvercast.6 mph50%30.01 "HgN/A
1:30 PM48 °FOvercast.6 mph54%30.01 "HgN/A
1:00 PM48 °FPartly sunny.6 mph54%30.01 "HgN/A
12:30 PM46 °FOvercast.5 mph50%30.01 "HgN/A
12:00 PM46 °FOvercast.7 mph57%30.01 "HgN/A
Weather by CustomWeather, © 2016

See weather overviewHow to use our weather pages